Weather in Penticton

Canada     49°29′34″N   119°36′06″W
temp.,
°C
wind,
m/s
gust,
m/s
humid.,
%
clouds,
%
prec.,
mm/h
press.,
hPa
HPBL,
m
28 september, tue
tue2823:00+7ssw379279 0.9 1007572
02:00+6s2693100 0.7 1009437
05:00+4sse249697 1.3 1010107
08:00+6s259132 0.1 1011276
11:00+10ssw23625 0.1 1010862
14:00+11sw2453100 0.8 10101420
17:00+10s236791 2.9 1011308
20:00+5ne11833 0.7 101413
29 september, wed
wed2923:00+3ese11855 0.7 101510
02:00+3ese2189100 0.0 101713
05:00+2se219280 0.0 101813
08:00+4sse248995 0.0 1019225
11:00+8s466470 0.1 10181260
14:00+12s463829 0.0 10161443
17:00+10s4745100 0.0 1016921
20:00+7se3763100 0.0 1018207
30 september, thu
thu3023:00+6se3774100 0.0 1020214
02:00+6se3965100 0.0 1019462
05:00+7sse41160100 0.0 1019886
08:00+7se41158100 0.0 1019786
11:00+9s3952100 0.0 1017968
14:00+10w2356100 0.0 1018568
17:00+6se1290100 2.6 1021131
20:00+4e11949 0.0 102210
1 october, fri
fri123:00+3ne11930 0.0 102311
02:00+2nne11910 0.0 102412
05:00+1nne11870 0.0 102614
08:00+2n23870 0.0 102775
11:00+8nnw34614 0.0 1026902
14:00+12nnw33434 0.0 10241250
17:00+11nnw33430 0.0 10231040
20:00+4ene22725 0.0 102720
2 october, sat
sat223:00+3ene21765 0.0 102717
02:00+2ene217910 0.0 102818
05:00+2e218123 0.0 102816
08:00+3ene117370 0.0 102846
11:00+12wsw134096 0.0 1024730
14:00+16sw232988 0.0 10211179
17:00+15w1232100 0.0 1021375
20:00+8ese224976 0.0 102212